COSMOS 2251 DEB, 33928

Orbit data source: Space-Track

COSMOS 2251 DEB, 33928 is space debris in LEO originally from a launch on Wed, 16 Jun 1993 UTC launched from the Plesetsk Missile And Space Complex (PKMTR). The debris from Iridium 33, an American commercial communications satellite, has been tracked extensively since its accidental collision with the defunct Russian satellite Cosmos 2251 in 2009. This event, occurring at high speed in low Earth orbit (LEO), generated thousands of pieces of space debris, significantly increasing the risk of further collisions. The Iridium 33 debris cloud has impacted space traffic management and orbital debris mitigation strategies, making it a subject of ongoing study in space situational awareness.

Loading next visibility...
Identifier
33928, 1993-036EH
Orbit
LEO
Country
Flag of CISCIS
Related business
Manufacturer
Unknown
Mission
Spacecraft
Bus & Motor
Unknown
Mass
Unknown
Launch date (UTC)
1993-06-16 (33 years ago)
Launch vehicle
Unknown
Launch site
Plesetsk Missile And Space Complex (PKMTR)
Object type
Payload
Rocket body
Debris
Shape & HBR
Unknown shape, 0.1 m
Radar Cross Section
Small (<0.1 m²)

Expand to show TLE details & history
Last TLE update: 9 hours ago

TLE from 9 hours ago
0 COSMOS 2251 DEB
1 33928U 93036EH  26121.09839544  .00000679  00000-0  18751-3 0  9997
2 33928  73.9232 150.1143 0059278  54.0891 306.5748 14.47724742906613
Epoch: 2026-05-01T02:21Z
TLE epoch observation values (Epoch: 2026-05-01T02:21:41.366Z)
Latitude
-0.00008°
Longitude
-104.3436°
Altitude
710.748 km
Speed
7.514 km/s
True Right ascension
10h 00m 27s
True Declination
0° 00' 00"
Sunlit
Object was in daylight at epoch
Visualization orbit readout
Latitude
Unknown
Longitude
Unknown
Altitude
Unknown
Speed
Unknown
Apparent Right ascension
Unknown
Apparent Declination
Unknown
Sunlit
N/A
Visualization observer readout
Local Sidereal Time
18:32:31
Azimuth
Unknown
Elevation
Unknown
Doppler factor
Unknown
Orbital elements
Apogee altitude
772.85 km
Perigee altitude
688.57 km
Semi-major axis
7,108.847 km
Eccentricity
0.00593
Inclination
73.9232°
RAAN
150.1143°
Arg. of periapsis
54.0891°
True anomaly
306.02688°
Mean anomaly
306.5748°
Eccentric anomaly
306.30108°
Mean motion
3.62113 °/min
Orbital period
99.42 mins
BSTAR
0.00018751
Loading maneuver chart data...
Computing Atmospheric mass density...

Documentation

Showing up to 5 results
|